When you browse on this site, cookies collect data to enhance your experience and personalize the content and advertising you see.
Visit our Privacy Policy to learn more. By continuing to use the site, you agree to this use of cookies and data.
  • Em Portugal
  • Lista de países
  • Para 7 dias
  • Temperatura da água
  • Mapas de satélite
  • Mapa do tempo
  • Widgets de tempo
  • user-avatar
    Iniciar Sessão

    Previsão horária em Recife

    Hoje, 19 Julho, Sexta-feira

    Tempo Temperatura Precipitação Vento Pressão Humidade
    00:00 +23°C° 0.2 mm 5 m/s 762 mmHg 87%
    01:00 +25°C° 0.2 mm 5 m/s 762 mmHg 88%
    02:00 +23°C° 0.2 mm 5 m/s 761 mmHg 88%
    03:00 +23°C° 0.2 mm 5 m/s 761 mmHg 89%
    04:00 +23°C° 0 mm 5 m/s 760 mmHg 88%
    05:00 +25°C° 0.4 mm 5 m/s 761 mmHg 88%
    06:00 +25°C° 0.4 mm 5 m/s 761 mmHg 88%
    07:00 +25°C° 0.4 mm 5 m/s 761 mmHg 88%
    08:00 +26°C° 0.2 mm 6 m/s 762 mmHg 84%
    09:00 +27°C° 0.2 mm 6 m/s 762 mmHg 79%
    10:00 +28°C° 0 mm 6 m/s 762 mmHg 76%
    11:00 +28°C° 0.5 mm 6 m/s 762 mmHg 76%
    12:00 +28°C° 0.5 mm 6 m/s 761 mmHg 76%
    13:00 +28°C° 0.5 mm 6 m/s 761 mmHg 75%
    14:00 +29°C° 0.2 mm 6 m/s 761 mmHg 74%
    15:00 +29°C° 0.2 mm 6 m/s 760 mmHg 72%
    16:00 +29°C° 0.2 mm 6 m/s 760 mmHg 71%
    17:00 +28°C° 0.1 mm 6 m/s 760 mmHg 75%
    18:00 +27°C° 0.1 mm 5 m/s 760 mmHg 79%
    19:00 +26°C° 0.1 mm 4 m/s 761 mmHg 83%
    20:00 +26°C° 0.2 mm 4 m/s 761 mmHg 85%
    21:00 +25°C° 0.2 mm 4 m/s 761 mmHg 86%
    22:00 +25°C° 0.2 mm 4 m/s 761 mmHg 88%
    23:00 +25°C° 0.4 mm 4 m/s 761 mmHg 88%

    Amanhã, 20 Julho, Sábado

    Tempo Temperatura Precipitação Vento Pressão Humidade
    00:00 +25°C° 0.4 mm 4 m/s 761 mmHg 89%
    01:00 +25°C° 0.4 mm 4 m/s 761 mmHg 90%
    02:00 +25°C° 0.6 mm 4 m/s 761 mmHg 90%
    03:00 +25°C° 0.6 mm 4 m/s 760 mmHg 89%
    04:00 +25°C° 0.6 mm 4 m/s 760 mmHg 89%
    05:00 +25°C° 1 mm 4 m/s 760 mmHg 89%
    06:00 +25°C° 1 mm 4 m/s 760 mmHg 89%
    07:00 +25°C° 1 mm 5 m/s 761 mmHg 89%
    08:00 +25°C° 1.6 mm 5 m/s 761 mmHg 87%
    09:00 +26°C° 1.6 mm 5 m/s 761 mmHg 86%
    10:00 +26°C° 1.6 mm 5 m/s 762 mmHg 84%
    11:00 +27°C° 1.1 mm 5 m/s 761 mmHg 83%
    12:00 +27°C° 1.1 mm 5 m/s 761 mmHg 82%
    13:00 +27°C° 1.1 mm 5 m/s 761 mmHg 81%
    14:00 +27°C° 0.4 mm 5 m/s 760 mmHg 80%
    15:00 +27°C° 0.4 mm 4 m/s 760 mmHg 78%
    16:00 +28°C° 0.4 mm 4 m/s 760 mmHg 77%
    17:00 +27°C° 0.2 mm 4 m/s 760 mmHg 79%
    18:00 +26°C° 0.2 mm 4 m/s 760 mmHg 81%
    19:00 +26°C° 0.2 mm 4 m/s 760 mmHg 83%
    20:00 +25°C° 0.7 mm 4 m/s 761 mmHg 85%
    21:00 +25°C° 0.7 mm 4 m/s 761 mmHg 86%
    22:00 +25°C° 0.7 mm 3 m/s 761 mmHg 87%
    23:00 +25°C° 0.8 mm 3 m/s 761 mmHg 87%

    Depois de amanhã, 21 Julho, Domingo

    Tempo Temperatura Precipitação Vento Pressão Humidade
    00:00 +25°C° 0.8 mm 3 m/s 761 mmHg 87%
    01:00 +25°C° 0.8 mm 3 m/s 761 mmHg 87%
    02:00 +25°C° 1.1 mm 3 m/s 760 mmHg 87%
    03:00 +25°C° 1.1 mm 3 m/s 760 mmHg 88%
    04:00 +25°C° 1.1 mm 3 m/s 759 mmHg 88%
    05:00 +25°C° 0.9 mm 4 m/s 760 mmHg 88%
    06:00 +25°C° 0.9 mm 4 m/s 760 mmHg 87%
    07:00 +25°C° 0.9 mm 4 m/s 760 mmHg 87%
    08:00 +25°C° 1.5 mm 4 m/s 760 mmHg 86%
    09:00 +26°C° 1.5 mm 4 m/s 761 mmHg 85%
    10:00 +26°C° 1.5 mm 5 m/s 761 mmHg 83%
    11:00 +27°C° 1.3 mm 5 m/s 761 mmHg 82%
    12:00 +27°C° 1.3 mm 6 m/s 761 mmHg 81%
    13:00 +27°C° 1.3 mm 7 m/s 760 mmHg 79%
    14:00 +27°C° 0.7 mm 6 m/s 760 mmHg 80%
    15:00 +27°C° 0.7 mm 6 m/s 760 mmHg 80%
    16:00 +27°C° 0.7 mm 6 m/s 759 mmHg 81%
    17:00 +26°C° 0.3 mm 6 m/s 760 mmHg 82%
    18:00 +26°C° 0.3 mm 6 m/s 760 mmHg 83%
    19:00 +26°C° 0.3 mm 6 m/s 760 mmHg 84%
    20:00 +24°C° 0.2 mm 6 m/s 760 mmHg 85%
    21:00 +25°C° 0.2 mm 5 m/s 760 mmHg 86%
    22:00 +25°C° 0.2 mm 5 m/s 761 mmHg 86%
    23:00 +25°C° 0.4 mm 5 m/s 761 mmHg 86%

    22 Julho, Segunda-feira

    Tempo Temperatura Precipitação Vento Pressão Humidade
    00:00 +25°C° 0.4 mm 5 m/s 760 mmHg 86%
    01:00 +25°C° 0.4 mm 5 m/s 760 mmHg 86%
    02:00 +24°C° 0.3 mm 6 m/s 760 mmHg 87%
    03:00 +24°C° 0.3 mm 6 m/s 759 mmHg 87%
    04:00 +24°C° 0.3 mm 6 m/s 759 mmHg 88%
    05:00 +24°C° 0.2 mm 6 m/s 759 mmHg 88%
    06:00 +24°C° 0.2 mm 6 m/s 759 mmHg 88%
    07:00 +24°C° 0.2 mm 6 m/s 760 mmHg 88%
    08:00 +26°C° 0.5 mm 6 m/s 760 mmHg 85%
    09:00 +26°C° 0.5 mm 7 m/s 760 mmHg 82%
    10:00 +27°C° 0.5 mm 7 m/s 761 mmHg 79%
    11:00 +28°C° 0.3 mm 7 m/s 760 mmHg 76%
    12:00 +28°C° 0.3 mm 7 m/s 760 mmHg 74%
    13:00 +29°C° 0.3 mm 7 m/s 760 mmHg 71%
    14:00 +28°C° 0.5 mm 6 m/s 759 mmHg 73%
    15:00 +28°C° 0.5 mm 6 m/s 759 mmHg 75%
    16:00 +28°C° 0.5 mm 6 m/s 759 mmHg 76%
    17:00 +27°C° 0.9 mm 6 m/s 759 mmHg 80%
    18:00 +26°C° 0.9 mm 5 m/s 759 mmHg 83%
    19:00 +25°C° 0.9 mm 5 m/s 760 mmHg 87%
    20:00 +25°C° 1.6 mm 5 m/s 760 mmHg 87%
    21:00 +25°C° 1.6 mm 5 m/s 761 mmHg 88%
    22:00 +24°C° 1.6 mm 6 m/s 761 mmHg 88%
    23:00 +24°C° 1.5 mm 6 m/s 761 mmHg 88%

    23 Julho, Terça-feira

    Tempo Temperatura Precipitação Vento Pressão Humidade
    00:00 +24°C° 1.5 mm 6 m/s 760 mmHg 88%
    01:00 +24°C° 1.5 mm 6 m/s 760 mmHg 88%
    02:00 +24°C° 1.3 mm 6 m/s 760 mmHg 88%
    03:00 +24°C° 1.3 mm 6 m/s 759 mmHg 88%
    04:00 +24°C° 1.3 mm 6 m/s 759 mmHg 87%
    05:00 +24°C° 0.8 mm 6 m/s 759 mmHg 87%
    06:00 +24°C° 0.8 mm 6 m/s 759 mmHg 87%
    07:00 +24°C° 0.8 mm 6 m/s 759 mmHg 87%
    08:00 +26°C° 0.7 mm 7 m/s 760 mmHg 85%
    09:00 +26°C° 0.7 mm 7 m/s 760 mmHg 83%
    10:00 +27°C° 0.7 mm 8 m/s 761 mmHg 81%
    11:00 +27°C° 0.6 mm 7 m/s 760 mmHg 80%
    12:00 +27°C° 0.6 mm 7 m/s 760 mmHg 80%
    13:00 +28°C° 0.6 mm 7 m/s 760 mmHg 79%
    14:00 +28°C° 0.6 mm 7 m/s 759 mmHg 79%
    15:00 +27°C° 0.6 mm 7 m/s 759 mmHg 79%
    16:00 +27°C° 0.6 mm 7 m/s 759 mmHg 79%
    17:00 +27°C° 0.7 mm 6 m/s 759 mmHg 81%
    18:00 +26°C° 0.7 mm 6 m/s 759 mmHg 84%
    19:00 +26°C° 0.7 mm 5 m/s 759 mmHg 86%
    20:00 +26°C° 1 mm 5 m/s 760 mmHg 86%
    21:00 +26°C° 1 mm 5 m/s 760 mmHg 87%
    22:00 +26°C° 1 mm 5 m/s 760 mmHg 87%
    23:00 +26°C° 1.8 mm 5 m/s 760 mmHg 87%

    24 Julho, Quarta-feira

    Tempo Temperatura Precipitação Vento Pressão Humidade
    00:00 +25°C° 1.8 mm 5 m/s 760 mmHg 88%
    01:00 +25°C° 1.8 mm 5 m/s 759 mmHg 89%
    02:00 +25°C° 2.2 mm 5 m/s 759 mmHg 90%
    03:00 +25°C° 2.2 mm 4 m/s 759 mmHg 90%
    04:00 +25°C° 2.2 mm 4 m/s 758 mmHg 91%
    05:00 +25°C° 2.3 mm 4 m/s 758 mmHg 91%
    06:00 +25°C° 2.3 mm 3 m/s 759 mmHg 91%
    07:00 +25°C° 2.3 mm 3 m/s 759 mmHg 91%
    08:00 +26°C° 1.3 mm 3 m/s 759 mmHg 88%
    09:00 +26°C° 1.3 mm 3 m/s 759 mmHg 86%
    10:00 +27°C° 1.3 mm 3 m/s 760 mmHg 83%
    11:00 +27°C° 0.6 mm 4 m/s 759 mmHg 82%
    12:00 +28°C° 0.6 mm 4 m/s 759 mmHg 81%
    13:00 +28°C° 0.6 mm 4 m/s 759 mmHg 80%
    14:00 +28°C° 0.7 mm 3 m/s 758 mmHg 80%
    15:00 +28°C° 0.7 mm 3 m/s 758 mmHg 81%
    16:00 +28°C° 0.7 mm 3 m/s 758 mmHg 81%
    17:00 +27°C° 1 mm 3 m/s 758 mmHg 83%
    18:00 +26°C° 1 mm 3 m/s 759 mmHg 85%
    19:00 +25°C° 1 mm 3 m/s 759 mmHg 87%
    20:00 +25°C° 1 mm 4 m/s 759 mmHg 87%
    21:00 +25°C° 1 mm 4 m/s 759 mmHg 88%
    22:00 +25°C° 1 mm 5 m/s 760 mmHg 88%
    23:00 +25°C° 0.7 mm 5 m/s 760 mmHg 88%
    Mostrar mais